owner,sensor,date,latitude,longitude,air_temperature,qcFlag 
WAVCIS,ioos:station:WAVCIS:CSI09:1,2017-02-01T00:00:00Z,29.1015,-89.9782,16.96,11111222 
WAVCIS,ioos:station:WAVCIS:CSI09:1,2017-02-01T01:00:00Z,29.1015,-89.9782,16.87,11111222 
WAVCIS,ioos:station:WAVCIS:CSI09:1,2017-02-01T02:00:00Z,29.1015,-89.9782,16.52,11111222 
WAVCIS,ioos:station:WAVCIS:CSI09:1,2017-02-01T03:00:00Z,29.1015,-89.9782,16.87,11111222 
WAVCIS,ioos:station:WAVCIS:CSI09:1,2017-02-01T04:00:00Z,29.1015,-89.9782,16.74,11111222 
WAVCIS,ioos:station:WAVCIS:CSI09:1,2017-02-01T05:00:00Z,29.1015,-89.9782,16.86,11111222 
WAVCIS,ioos:station:WAVCIS:CSI09:1,2017-02-01T06:00:00Z,29.1015,-89.9782,16.89,11111222 
WAVCIS,ioos:station:WAVCIS:CSI09:1,2017-02-01T07:00:00Z,29.1015,-89.9782,17.14,11111222 
WAVCIS,ioos:station:WAVCIS:CSI09:1,2017-02-01T08:00:00Z,29.1015,-89.9782,17.15,11111222 
WAVCIS,ioos:station:WAVCIS:CSI09:1,2017-02-01T09:00:00Z,29.1015,-89.9782,16.93,11111222 
WAVCIS,ioos:station:WAVCIS:CSI09:1,2017-02-01T10:00:00Z,29.1015,-89.9782,16.76,11111222 
WAVCIS,ioos:station:WAVCIS:CSI09:1,2017-02-01T11:00:00Z,29.1015,-89.9782,16.29,11111222 
WAVCIS,ioos:station:WAVCIS:CSI09:1,2017-02-01T12:00:00Z,29.1015,-89.9782,16.09,11111222 
WAVCIS,ioos:station:WAVCIS:CSI09:1,2017-02-01T13:00:00Z,29.1015,-89.9782,16.29,11111222 
WAVCIS,ioos:station:WAVCIS:CSI09:1,2017-02-01T14:00:00Z,29.1015,-89.9782,16.59,11111222 
WAVCIS,ioos:station:WAVCIS:CSI09:1,2017-02-01T15:00:00Z,29.1015,-89.9782,16.59,11111222 
WAVCIS,ioos:station:WAVCIS:CSI09:1,2017-02-01T16:00:00Z,29.1015,-89.9782,16.72,11111222 
WAVCIS,ioos:station:WAVCIS:CSI09:1,2017-02-01T17:00:00Z,29.1015,-89.9782,16.65,11111222 
WAVCIS,ioos:station:WAVCIS:CSI09:1,2017-02-01T18:00:00Z,29.1015,-89.9782,16.77,11111222 
WAVCIS,ioos:station:WAVCIS:CSI09:1,2017-02-01T19:00:00Z,29.1015,-89.9782,17.09,11111222 
WAVCIS,ioos:station:WAVCIS:CSI09:1,2017-02-01T20:00:00Z,29.1015,-89.9782,16.9,11111222 
WAVCIS,ioos:station:WAVCIS:CSI09:1,2017-02-01T21:00:00Z,29.1015,-89.9782,16.81,11111222 
WAVCIS,ioos:station:WAVCIS:CSI09:1,2017-02-01T22:00:00Z,29.1015,-89.9782,17.01,11111222 
WAVCIS,ioos:station:WAVCIS:CSI09:1,2017-02-01T23:00:00Z,29.1015,-89.9782,17.2,11111222 
WAVCIS,ioos:station:WAVCIS:CSI09:1,2017-02-02T00:00:00Z,29.1015,-89.9782,16.61,11111222 
WAVCIS,ioos:station:WAVCIS:CSI09:1,2017-02-02T01:00:00Z,29.1015,-89.9782,16.25,11111222 
WAVCIS,ioos:station:WAVCIS:CSI09:1,2017-02-02T02:00:00Z,29.1015,-89.9782,16.14,11111222 
WAVCIS,ioos:station:WAVCIS:CSI09:1,2017-02-02T03:00:00Z,29.1015,-89.9782,15.89,11111222 
WAVCIS,ioos:station:WAVCIS:CSI09:1,2017-02-02T04:00:00Z,29.1015,-89.9782,16.01,11111222 
WAVCIS,ioos:station:WAVCIS:CSI09:1,2017-02-02T05:00:00Z,29.1015,-89.9782,15.91,11111222 
WAVCIS,ioos:station:WAVCIS:CSI09:1,2017-02-02T06:00:00Z,29.1015,-89.9782,15.75,11111222 
WAVCIS,ioos:station:WAVCIS:CSI09:1,2017-02-02T07:00:00Z,29.1015,-89.9782,15.57,11111222 
WAVCIS,ioos:station:WAVCIS:CSI09:1,2017-02-02T08:00:00Z,29.1015,-89.9782,15.44,11111222 
WAVCIS,ioos:station:WAVCIS:CSI09:1,2017-02-02T09:00:00Z,29.1015,-89.9782,14.51,11111222 
WAVCIS,ioos:station:WAVCIS:CSI09:1,2017-02-02T10:00:00Z,29.1015,-89.9782,14.2,11111222 
WAVCIS,ioos:station:WAVCIS:CSI09:1,2017-02-02T11:00:00Z,29.1015,-89.9782,13.91,11111222 
WAVCIS,ioos:station:WAVCIS:CSI09:1,2017-02-02T12:00:00Z,29.1015,-89.9782,13.73,11111222 
WAVCIS,ioos:station:WAVCIS:CSI09:1,2017-02-02T13:00:00Z,29.1015,-89.9782,13.68,11111222 
WAVCIS,ioos:station:WAVCIS:CSI09:1,2017-02-02T14:00:00Z,29.1015,-89.9782,14.16,11111222 
WAVCIS,ioos:station:WAVCIS:CSI09:1,2017-02-02T15:00:00Z,29.1015,-89.9782,15.09,11111222 
WAVCIS,ioos:station:WAVCIS:CSI09:1,2017-02-02T16:00:00Z,29.1015,-89.9782,15.72,11111222 
WAVCIS,ioos:station:WAVCIS:CSI09:1,2017-02-02T17:00:00Z,29.1015,-89.9782,16.05,11111222 
WAVCIS,ioos:station:WAVCIS:CSI09:1,2017-02-02T18:00:00Z,29.1015,-89.9782,15.89,11111222 
WAVCIS,ioos:station:WAVCIS:CSI09:1,2017-02-02T19:00:00Z,29.1015,-89.9782,15.85,11111222 
WAVCIS,ioos:station:WAVCIS:CSI09:1,2017-02-02T20:00:00Z,29.1015,-89.9782,16.04,11111222 
WAVCIS,ioos:station:WAVCIS:CSI09:1,2017-02-02T21:00:00Z,29.1015,-89.9782,16.06,11111222 
WAVCIS,ioos:station:WAVCIS:CSI09:1,2017-02-02T22:00:00Z,29.1015,-89.9782,16.06,11111222 
WAVCIS,ioos:station:WAVCIS:CSI09:1,2017-02-02T23:00:00Z,29.1015,-89.9782,15.94,11111222 
WAVCIS,ioos:station:WAVCIS:CSI09:1,2017-02-03T00:00:00Z,29.1015,-89.9782,15.59,11111222 
WAVCIS,ioos:station:WAVCIS:CSI09:1,2017-02-03T01:00:00Z,29.1015,-89.9782,15.62,11111222 
WAVCIS,ioos:station:WAVCIS:CSI09:1,2017-02-03T02:00:00Z,29.1015,-89.9782,15.46,11111222 
WAVCIS,ioos:station:WAVCIS:CSI09:1,2017-02-03T03:00:00Z,29.1015,-89.9782,14.81,11111222 
WAVCIS,ioos:station:WAVCIS:CSI09:1,2017-02-03T04:00:00Z,29.1015,-89.9782,14.07,11111222 
WAVCIS,ioos:station:WAVCIS:CSI09:1,2017-02-03T05:00:00Z,29.1015,-89.9782,12.18,11111222 
WAVCIS,ioos:station:WAVCIS:CSI09:1,2017-02-03T06:00:00Z,29.1015,-89.9782,11.52,11111222 
WAVCIS,ioos:station:WAVCIS:CSI09:1,2017-02-03T07:00:00Z,29.1015,-89.9782,11.53,11111222 
WAVCIS,ioos:station:WAVCIS:CSI09:1,2017-02-03T08:00:00Z,29.1015,-89.9782,10.34,11111222 
WAVCIS,ioos:station:WAVCIS:CSI09:1,2017-02-03T09:00:00Z,29.1015,-89.9782,8.87,11111222 
WAVCIS,ioos:station:WAVCIS:CSI09:1,2017-02-03T10:00:00Z,29.1015,-89.9782,7.95,11111222 
WAVCIS,ioos:station:WAVCIS:CSI09:1,2017-02-03T11:00:00Z,29.1015,-89.9782,6.14,11111222 
WAVCIS,ioos:station:WAVCIS:CSI09:1,2017-02-03T12:00:00Z,29.1015,-89.9782,4.13,11111222 
WAVCIS,ioos:station:WAVCIS:CSI09:1,2017-02-03T13:00:00Z,29.1015,-89.9782,3.578,11111222 
WAVCIS,ioos:station:WAVCIS:CSI09:1,2017-02-03T14:00:00Z,29.1015,-89.9782,3.221,11111222 
WAVCIS,ioos:station:WAVCIS:CSI09:1,2017-02-03T15:00:00Z,29.1015,-89.9782,7.59,11111222 
WAVCIS,ioos:station:WAVCIS:CSI09:1,2017-02-03T16:00:00Z,29.1015,-89.9782,-3.963,11133222 
WAVCIS,ioos:station:WAVCIS:CSI09:1,2017-02-03T17:00:00Z,29.1015,-89.9782,-5.548,11133222 
WAVCIS,ioos:station:WAVCIS:CSI09:1,2017-02-03T18:00:00Z,29.1015,-89.9782,-1.703,11133222 
WAVCIS,ioos:station:WAVCIS:CSI09:1,2017-02-03T19:00:00Z,29.1015,-89.9782,1.676,11111222 
WAVCIS,ioos:station:WAVCIS:CSI09:1,2017-02-03T20:00:00Z,29.1015,-89.9782,6.24,11111222 
WAVCIS,ioos:station:WAVCIS:CSI09:1,2017-02-03T21:00:00Z,29.1015,-89.9782,7.92,11111222 
WAVCIS,ioos:station:WAVCIS:CSI09:1,2017-02-03T22:00:00Z,29.1015,-89.9782,9.69,11111222 
WAVCIS,ioos:station:WAVCIS:CSI09:1,2017-02-03T23:00:00Z,29.1015,-89.9782,11.25,11111222 
WAVCIS,ioos:station:WAVCIS:CSI09:1,2017-02-04T00:00:00Z,29.1015,-89.9782,11.88,11111222 
WAVCIS,ioos:station:WAVCIS:CSI09:1,2017-02-04T01:00:00Z,29.1015,-89.9782,11.94,11111222 
WAVCIS,ioos:station:WAVCIS:CSI09:1,2017-02-04T02:00:00Z,29.1015,-89.9782,11.81,11111222 
WAVCIS,ioos:station:WAVCIS:CSI09:1,2017-02-04T03:00:00Z,29.1015,-89.9782,11.92,11111222 
WAVCIS,ioos:station:WAVCIS:CSI09:1,2017-02-04T04:00:00Z,29.1015,-89.9782,11.72,11111222 
WAVCIS,ioos:station:WAVCIS:CSI09:1,2017-02-04T05:00:00Z,29.1015,-89.9782,11.92,11111222 
WAVCIS,ioos:station:WAVCIS:CSI09:1,2017-02-04T06:00:00Z,29.1015,-89.9782,11.7,11111222 
WAVCIS,ioos:station:WAVCIS:CSI09:1,2017-02-04T07:00:00Z,29.1015,-89.9782,11.25,11111222 
WAVCIS,ioos:station:WAVCIS:CSI09:1,2017-02-04T08:00:00Z,29.1015,-89.9782,10.69,11111222 
WAVCIS,ioos:station:WAVCIS:CSI09:1,2017-02-04T09:00:00Z,29.1015,-89.9782,10.26,11111222 
WAVCIS,ioos:station:WAVCIS:CSI09:1,2017-02-04T10:00:00Z,29.1015,-89.9782,10.05,11111222 
WAVCIS,ioos:station:WAVCIS:CSI09:1,2017-02-04T11:00:00Z,29.1015,-89.9782,9.88,11111222 
WAVCIS,ioos:station:WAVCIS:CSI09:1,2017-02-04T12:00:00Z,29.1015,-89.9782,9.87,11111222 
WAVCIS,ioos:station:WAVCIS:CSI09:1,2017-02-04T13:00:00Z,29.1015,-89.9782,9.99,11111222 
WAVCIS,ioos:station:WAVCIS:CSI09:1,2017-02-04T14:00:00Z,29.1015,-89.9782,10.17,11111222 
WAVCIS,ioos:station:WAVCIS:CSI09:1,2017-02-04T15:00:00Z,29.1015,-89.9782,10.34,11111222 
WAVCIS,ioos:station:WAVCIS:CSI09:1,2017-02-04T16:00:00Z,29.1015,-89.9782,10.24,11111222 
WAVCIS,ioos:station:WAVCIS:CSI09:1,2017-02-04T17:00:00Z,29.1015,-89.9782,10.65,11111222 
WAVCIS,ioos:station:WAVCIS:CSI09:1,2017-02-04T18:00:00Z,29.1015,-89.9782,11.04,11111222 
WAVCIS,ioos:station:WAVCIS:CSI09:1,2017-02-04T19:00:00Z,29.1015,-89.9782,11.1,11111222 
WAVCIS,ioos:station:WAVCIS:CSI09:1,2017-02-04T20:00:00Z,29.1015,-89.9782,11.1,11111222 
WAVCIS,ioos:station:WAVCIS:CSI09:1,2017-02-04T21:00:00Z,29.1015,-89.9782,11.48,11111222 
WAVCIS,ioos:station:WAVCIS:CSI09:1,2017-02-04T22:00:00Z,29.1015,-89.9782,11.58,11111222 
WAVCIS,ioos:station:WAVCIS:CSI09:1,2017-02-04T23:00:00Z,29.1015,-89.9782,11.73,11111222 
WAVCIS,ioos:station:WAVCIS:CSI09:1,2017-02-05T00:00:00Z,29.1015,-89.9782,11.64,11111222 
WAVCIS,ioos:station:WAVCIS:CSI09:1,2017-02-05T01:00:00Z,29.1015,-89.9782,11.81,11111222 
WAVCIS,ioos:station:WAVCIS:CSI09:1,2017-02-05T02:00:00Z,29.1015,-89.9782,11.87,11111222 
WAVCIS,ioos:station:WAVCIS:CSI09:1,2017-02-05T03:00:00Z,29.1015,-89.9782,11.98,11111222 
WAVCIS,ioos:station:WAVCIS:CSI09:1,2017-02-05T04:00:00Z,29.1015,-89.9782,12.22,11111222 
WAVCIS,ioos:station:WAVCIS:CSI09:1,2017-02-05T05:00:00Z,29.1015,-89.9782,12.36,11111222 
WAVCIS,ioos:station:WAVCIS:CSI09:1,2017-02-05T06:00:00Z,29.1015,-89.9782,12.44,11111222 
WAVCIS,ioos:station:WAVCIS:CSI09:1,2017-02-05T07:00:00Z,29.1015,-89.9782,12.49,11111222 
WAVCIS,ioos:station:WAVCIS:CSI09:1,2017-02-05T08:00:00Z,29.1015,-89.9782,12.57,11111222 
WAVCIS,ioos:station:WAVCIS:CSI09:1,2017-02-05T09:00:00Z,29.1015,-89.9782,12.79,11111222 
WAVCIS,ioos:station:WAVCIS:CSI09:1,2017-02-05T10:00:00Z,29.1015,-89.9782,13.1,11111222 
WAVCIS,ioos:station:WAVCIS:CSI09:1,2017-02-05T11:00:00Z,29.1015,-89.9782,12.84,11111222 
WAVCIS,ioos:station:WAVCIS:CSI09:1,2017-02-05T12:00:00Z,29.1015,-89.9782,12.84,11111222 
WAVCIS,ioos:station:WAVCIS:CSI09:1,2017-02-05T13:00:00Z,29.1015,-89.9782,12.94,11111222 
WAVCIS,ioos:station:WAVCIS:CSI09:1,2017-02-05T14:00:00Z,29.1015,-89.9782,13.51,11111222 
WAVCIS,ioos:station:WAVCIS:CSI09:1,2017-02-05T15:00:00Z,29.1015,-89.9782,13.71,11111222 
WAVCIS,ioos:station:WAVCIS:CSI09:1,2017-02-05T16:00:00Z,29.1015,-89.9782,13.84,11111222 
WAVCIS,ioos:station:WAVCIS:CSI09:1,2017-02-05T17:00:00Z,29.1015,-89.9782,14.37,11111222 
WAVCIS,ioos:station:WAVCIS:CSI09:1,2017-02-05T18:00:00Z,29.1015,-89.9782,15.23,11111222 
WAVCIS,ioos:station:WAVCIS:CSI09:1,2017-02-05T19:00:00Z,29.1015,-89.9782,15.38,11111222 
WAVCIS,ioos:station:WAVCIS:CSI09:1,2017-02-05T20:00:00Z,29.1015,-89.9782,15.49,11111222 
WAVCIS,ioos:station:WAVCIS:CSI09:1,2017-02-05T21:00:00Z,29.1015,-89.9782,15.56,11111222 
WAVCIS,ioos:station:WAVCIS:CSI09:1,2017-02-05T22:00:00Z,29.1015,-89.9782,15.58,11111222 
WAVCIS,ioos:station:WAVCIS:CSI09:1,2017-02-05T23:00:00Z,29.1015,-89.9782,15.35,11111222 
WAVCIS,ioos:station:WAVCIS:CSI09:1,2017-02-06T00:00:00Z,29.1015,-89.9782,15.32,11111222 
WAVCIS,ioos:station:WAVCIS:CSI09:1,2017-02-06T01:00:00Z,29.1015,-89.9782,13.7,11111222 
WAVCIS,ioos:station:WAVCIS:CSI09:1,2017-02-06T02:00:00Z,29.1015,-89.9782,13.12,11111222 
WAVCIS,ioos:station:WAVCIS:CSI09:1,2017-02-06T03:00:00Z,29.1015,-89.9782,12.33,11111222 
WAVCIS,ioos:station:WAVCIS:CSI09:1,2017-02-06T04:00:00Z,29.1015,-89.9782,12.37,11111222 
WAVCIS,ioos:station:WAVCIS:CSI09:1,2017-02-06T05:00:00Z,29.1015,-89.9782,12.55,11111222 
WAVCIS,ioos:station:WAVCIS:CSI09:1,2017-02-06T06:00:00Z,29.1015,-89.9782,12.36,11111222 
WAVCIS,ioos:station:WAVCIS:CSI09:1,2017-02-06T07:00:00Z,29.1015,-89.9782,12.28,11111222 
WAVCIS,ioos:station:WAVCIS:CSI09:1,2017-02-06T08:00:00Z,29.1015,-89.9782,11.94,11111222 
WAVCIS,ioos:station:WAVCIS:CSI09:1,2017-02-06T09:00:00Z,29.1015,-89.9782,11.15,11111222 
WAVCIS,ioos:station:WAVCIS:CSI09:1,2017-02-06T10:00:00Z,29.1015,-89.9782,10.9,11111222 
WAVCIS,ioos:station:WAVCIS:CSI09:1,2017-02-06T11:00:00Z,29.1015,-89.9782,12.53,11111222 
WAVCIS,ioos:station:WAVCIS:CSI09:1,2017-02-06T12:00:00Z,29.1015,-89.9782,13.93,11111222 
WAVCIS,ioos:station:WAVCIS:CSI09:1,2017-02-06T13:00:00Z,29.1015,-89.9782,14.34,11111222 
WAVCIS,ioos:station:WAVCIS:CSI09:1,2017-02-06T14:00:00Z,29.1015,-89.9782,14.83,11111222 
WAVCIS,ioos:station:WAVCIS:CSI09:1,2017-02-06T15:00:00Z,29.1015,-89.9782,15.34,11111222 
WAVCIS,ioos:station:WAVCIS:CSI09:1,2017-02-06T16:00:00Z,29.1015,-89.9782,15.29,11111222 
WAVCIS,ioos:station:WAVCIS:CSI09:1,2017-02-06T17:00:00Z,29.1015,-89.9782,16.04,11111222 
WAVCIS,ioos:station:WAVCIS:CSI09:1,2017-02-06T18:00:00Z,29.1015,-89.9782,16.59,11111222 
WAVCIS,ioos:station:WAVCIS:CSI09:1,2017-02-06T19:00:00Z,29.1015,-89.9782,16.8,11111222 
WAVCIS,ioos:station:WAVCIS:CSI09:1,2017-02-06T20:00:00Z,29.1015,-89.9782,17.05,11111222 
WAVCIS,ioos:station:WAVCIS:CSI09:1,2017-02-06T21:00:00Z,29.1015,-89.9782,17.14,11111222 
WAVCIS,ioos:station:WAVCIS:CSI09:1,2017-02-06T22:00:00Z,29.1015,-89.9782,16.85,11111222 
WAVCIS,ioos:station:WAVCIS:CSI09:1,2017-02-06T23:00:00Z,29.1015,-89.9782,16.91,11111222 
WAVCIS,ioos:station:WAVCIS:CSI09:1,2017-02-07T00:00:00Z,29.1015,-89.9782,16.18,11111222 
WAVCIS,ioos:station:WAVCIS:CSI09:1,2017-02-07T01:00:00Z,29.1015,-89.9782,15.44,11111222 
WAVCIS,ioos:station:WAVCIS:CSI09:1,2017-02-07T02:00:00Z,29.1015,-89.9782,15.72,11111222 
WAVCIS,ioos:station:WAVCIS:CSI09:1,2017-02-07T03:00:00Z,29.1015,-89.9782,15.24,11111222 
WAVCIS,ioos:station:WAVCIS:CSI09:1,2017-02-07T04:00:00Z,29.1015,-89.9782,15.24,11111222 
WAVCIS,ioos:station:WAVCIS:CSI09:1,2017-02-07T05:00:00Z,29.1015,-89.9782,15.42,11111222 
WAVCIS,ioos:station:WAVCIS:CSI09:1,2017-02-07T06:00:00Z,29.1015,-89.9782,15.1,11111222 
WAVCIS,ioos:station:WAVCIS:CSI09:1,2017-02-07T07:00:00Z,29.1015,-89.9782,15.06,11111222 
WAVCIS,ioos:station:WAVCIS:CSI09:1,2017-02-07T08:00:00Z,29.1015,-89.9782,14.7,11111222 
WAVCIS,ioos:station:WAVCIS:CSI09:1,2017-02-07T09:00:00Z,29.1015,-89.9782,13.94,11111222 
WAVCIS,ioos:station:WAVCIS:CSI09:1,2017-02-07T10:00:00Z,29.1015,-89.9782,13.02,11111222 
WAVCIS,ioos:station:WAVCIS:CSI09:1,2017-02-07T11:00:00Z,29.1015,-89.9782,12.15,11111222 
WAVCIS,ioos:station:WAVCIS:CSI09:1,2017-02-07T12:00:00Z,29.1015,-89.9782,11.08,11111222 
WAVCIS,ioos:station:WAVCIS:CSI09:1,2017-02-07T13:00:00Z,29.1015,-89.9782,10.18,11111222 
WAVCIS,ioos:station:WAVCIS:CSI09:1,2017-02-07T14:00:00Z,29.1015,-89.9782,9.67,11111222 
WAVCIS,ioos:station:WAVCIS:CSI09:1,2017-02-07T15:00:00Z,29.1015,-89.9782,11.27,11111222 
WAVCIS,ioos:station:WAVCIS:CSI09:1,2017-02-07T16:00:00Z,29.1015,-89.9782,12.01,11111222 
WAVCIS,ioos:station:WAVCIS:CSI09:1,2017-02-07T17:00:00Z,29.1015,-89.9782,12.41,11111222 
WAVCIS,ioos:station:WAVCIS:CSI09:1,2017-02-07T18:00:00Z,29.1015,-89.9782,14.58,11111222 
WAVCIS,ioos:station:WAVCIS:CSI09:1,2017-02-07T19:00:00Z,29.1015,-89.9782,14.61,11111222 
WAVCIS,ioos:station:WAVCIS:CSI09:1,2017-02-07T20:00:00Z,29.1015,-89.9782,13.01,11111222 
WAVCIS,ioos:station:WAVCIS:CSI09:1,2017-02-07T21:00:00Z,29.1015,-89.9782,10.92,11111222 
WAVCIS,ioos:station:WAVCIS:CSI09:1,2017-02-07T22:00:00Z,29.1015,-89.9782,8.02,11111222 
WAVCIS,ioos:station:WAVCIS:CSI09:1,2017-02-07T23:00:00Z,29.1015,-89.9782,7.18,11111222 
WAVCIS,ioos:station:WAVCIS:CSI09:1,2017-02-08T00:00:00Z,29.1015,-89.9782,1.678,11111222 
WAVCIS,ioos:station:WAVCIS:CSI09:1,2017-02-08T01:00:00Z,29.1015,-89.9782,-3.395,11133222 
WAVCIS,ioos:station:WAVCIS:CSI09:1,2017-02-08T02:00:00Z,29.1015,-89.9782,-5.445,11133222 
WAVCIS,ioos:station:WAVCIS:CSI09:1,2017-02-08T03:00:00Z,29.1015,-89.9782,-7.715,11133222 
WAVCIS,ioos:station:WAVCIS:CSI09:1,2017-02-08T04:00:00Z,29.1015,-89.9782,-11.97,11144222 
WAVCIS,ioos:station:WAVCIS:CSI09:1,2017-02-08T05:00:00Z,29.1015,-89.9782,-14.74,11144222 
WAVCIS,ioos:station:WAVCIS:CSI09:1,2017-02-08T06:00:00Z,29.1015,-89.9782,-18.62,11144222 
WAVCIS,ioos:station:WAVCIS:CSI09:1,2017-02-08T07:00:00Z,29.1015,-89.9782,-9999.0,1111122 
WAVCIS,ioos:station:WAVCIS:CSI09:1,2017-02-08T08:00:00Z,29.1015,-89.9782,-9999.0,1111122 
WAVCIS,ioos:station:WAVCIS:CSI09:1,2017-02-08T09:00:00Z,29.1015,-89.9782,-9999.0,1111122 
WAVCIS,ioos:station:WAVCIS:CSI09:1,2017-02-08T10:00:00Z,29.1015,-89.9782,-9999.0,1111122 
WAVCIS,ioos:station:WAVCIS:CSI09:1,2017-02-08T11:00:00Z,29.1015,-89.9782,-9999.0,1111122 
WAVCIS,ioos:station:WAVCIS:CSI09:1,2017-02-08T12:00:00Z,29.1015,-89.9782,-9999.0,1111122 
WAVCIS,ioos:station:WAVCIS:CSI09:1,2017-02-08T13:00:00Z,29.1015,-89.9782,-9999.0,1111122 
WAVCIS,ioos:station:WAVCIS:CSI09:1,2017-02-08T14:00:00Z,29.1015,-89.9782,-9999.0,1111122 
WAVCIS,ioos:station:WAVCIS:CSI09:1,2017-02-08T15:00:00Z,29.1015,-89.9782,-9999.0,1111122 
WAVCIS,ioos:station:WAVCIS:CSI09:1,2017-02-08T16:00:00Z,29.1015,-89.9782,-9999.0,1111122 
WAVCIS,ioos:station:WAVCIS:CSI09:1,2017-02-08T17:00:00Z,29.1015,-89.9782,-9999.0,1111122 
WAVCIS,ioos:station:WAVCIS:CSI09:1,2017-02-08T18:00:00Z,29.1015,-89.9782,-1.411,11133222 
WAVCIS,ioos:station:WAVCIS:CSI09:1,2017-02-08T19:00:00Z,29.1015,-89.9782,1.72,11111222 
WAVCIS,ioos:station:WAVCIS:CSI09:1,2017-02-08T20:00:00Z,29.1015,-89.9782,2.046,11111222 
WAVCIS,ioos:station:WAVCIS:CSI09:1,2017-02-08T21:00:00Z,29.1015,-89.9782,4.781,11111222 
WAVCIS,ioos:station:WAVCIS:CSI09:1,2017-02-08T22:00:00Z,29.1015,-89.9782,5.486,11111222 
WAVCIS,ioos:station:WAVCIS:CSI09:1,2017-02-08T23:00:00Z,29.1015,-89.9782,0.9,11111222 
WAVCIS,ioos:station:WAVCIS:CSI09:1,2017-02-09T00:00:00Z,29.1015,-89.9782,-0.493,11133222 
WAVCIS,ioos:station:WAVCIS:CSI09:1,2017-02-09T01:00:00Z,29.1015,-89.9782,1.864,11111222 
WAVCIS,ioos:station:WAVCIS:CSI09:1,2017-02-09T02:00:00Z,29.1015,-89.9782,1.498,11111222 
WAVCIS,ioos:station:WAVCIS:CSI09:1,2017-02-09T03:00:00Z,29.1015,-89.9782,-1.232,11133222 
WAVCIS,ioos:station:WAVCIS:CSI09:1,2017-02-09T04:00:00Z,29.1015,-89.9782,-4.558,11133222 
WAVCIS,ioos:station:WAVCIS:CSI09:1,2017-02-09T05:00:00Z,29.1015,-89.9782,-4.856,11133222 
WAVCIS,ioos:station:WAVCIS:CSI09:1,2017-02-09T06:00:00Z,29.1015,-89.9782,-8.99,11133222 
WAVCIS,ioos:station:WAVCIS:CSI09:1,2017-02-09T07:00:00Z,29.1015,-89.9782,-11.3,11144222 
WAVCIS,ioos:station:WAVCIS:CSI09:1,2017-02-09T08:00:00Z,29.1015,-89.9782,-5.176,11133222 
WAVCIS,ioos:station:WAVCIS:CSI09:1,2017-02-09T09:00:00Z,29.1015,-89.9782,3.587,11111222 
WAVCIS,ioos:station:WAVCIS:CSI09:1,2017-02-09T10:00:00Z,29.1015,-89.9782,6.69,11111222 
WAVCIS,ioos:station:WAVCIS:CSI09:1,2017-02-09T11:00:00Z,29.1015,-89.9782,10.73,11111222 
WAVCIS,ioos:station:WAVCIS:CSI09:1,2017-02-09T12:00:00Z,29.1015,-89.9782,12.78,11111222 
WAVCIS,ioos:station:WAVCIS:CSI09:1,2017-02-09T13:00:00Z,29.1015,-89.9782,12.77,11111222 
WAVCIS,ioos:station:WAVCIS:CSI09:1,2017-02-09T14:00:00Z,29.1015,-89.9782,12.76,11111222 
WAVCIS,ioos:station:WAVCIS:CSI09:1,2017-02-09T15:00:00Z,29.1015,-89.9782,12.39,11111222 
WAVCIS,ioos:station:WAVCIS:CSI09:1,2017-02-09T16:00:00Z,29.1015,-89.9782,12.36,11111222 
WAVCIS,ioos:station:WAVCIS:CSI09:1,2017-02-09T17:00:00Z,29.1015,-89.9782,12.45,11111222 
WAVCIS,ioos:station:WAVCIS:CSI09:1,2017-02-09T18:00:00Z,29.1015,-89.9782,12.73,11111222 
WAVCIS,ioos:station:WAVCIS:CSI09:1,2017-02-09T19:00:00Z,29.1015,-89.9782,13.1,11111222 
WAVCIS,ioos:station:WAVCIS:CSI09:1,2017-02-09T20:00:00Z,29.1015,-89.9782,13.47,11111222 
WAVCIS,ioos:station:WAVCIS:CSI09:1,2017-02-09T21:00:00Z,29.1015,-89.9782,13.66,11111222 
WAVCIS,ioos:station:WAVCIS:CSI09:1,2017-02-09T22:00:00Z,29.1015,-89.9782,14.02,11111222 
WAVCIS,ioos:station:WAVCIS:CSI09:1,2017-02-09T23:00:00Z,29.1015,-89.9782,14.32,11111222 
WAVCIS,ioos:station:WAVCIS:CSI09:1,2017-02-10T00:00:00Z,29.1015,-89.9782,14.38,11111222 
WAVCIS,ioos:station:WAVCIS:CSI09:1,2017-02-10T01:00:00Z,29.1015,-89.9782,14.48,11111222 
WAVCIS,ioos:station:WAVCIS:CSI09:1,2017-02-10T02:00:00Z,29.1015,-89.9782,14.7,11111222 
WAVCIS,ioos:station:WAVCIS:CSI09:1,2017-02-10T03:00:00Z,29.1015,-89.9782,14.79,11111222 
WAVCIS,ioos:station:WAVCIS:CSI09:1,2017-02-10T04:00:00Z,29.1015,-89.9782,14.81,11111222 
WAVCIS,ioos:station:WAVCIS:CSI09:1,2017-02-10T05:00:00Z,29.1015,-89.9782,14.83,11111222 
WAVCIS,ioos:station:WAVCIS:CSI09:1,2017-02-10T06:00:00Z,29.1015,-89.9782,14.67,11111222 
WAVCIS,ioos:station:WAVCIS:CSI09:1,2017-02-10T07:00:00Z,29.1015,-89.9782,14.47,11111222 
WAVCIS,ioos:station:WAVCIS:CSI09:1,2017-02-10T08:00:00Z,29.1015,-89.9782,14.4,11111222 
WAVCIS,ioos:station:WAVCIS:CSI09:1,2017-02-10T09:00:00Z,29.1015,-89.9782,14.28,11111222 
WAVCIS,ioos:station:WAVCIS:CSI09:1,2017-02-10T10:00:00Z,29.1015,-89.9782,14.12,11111222 
WAVCIS,ioos:station:WAVCIS:CSI09:1,2017-02-10T11:00:00Z,29.1015,-89.9782,14.06,11111222 
WAVCIS,ioos:station:WAVCIS:CSI09:1,2017-02-10T12:00:00Z,29.1015,-89.9782,14.26,11111222 
WAVCIS,ioos:station:WAVCIS:CSI09:1,2017-02-10T13:00:00Z,29.1015,-89.9782,14.33,11111222 
WAVCIS,ioos:station:WAVCIS:CSI09:1,2017-02-10T14:00:00Z,29.1015,-89.9782,14.69,11111222 
WAVCIS,ioos:station:WAVCIS:CSI09:1,2017-02-10T15:00:00Z,29.1015,-89.9782,14.79,11111222 
WAVCIS,ioos:station:WAVCIS:CSI09:1,2017-02-10T16:00:00Z,29.1015,-89.9782,15.16,11111222 
WAVCIS,ioos:station:WAVCIS:CSI09:1,2017-02-10T17:00:00Z,29.1015,-89.9782,15.44,11111222 
WAVCIS,ioos:station:WAVCIS:CSI09:1,2017-02-10T18:00:00Z,29.1015,-89.9782,15.89,11111222 
WAVCIS,ioos:station:WAVCIS:CSI09:1,2017-02-10T19:00:00Z,29.1015,-89.9782,16.2,11111222 
WAVCIS,ioos:station:WAVCIS:CSI09:1,2017-02-10T20:00:00Z,29.1015,-89.9782,16.57,11111222 
WAVCIS,ioos:station:WAVCIS:CSI09:1,2017-02-10T21:00:00Z,29.1015,-89.9782,16.64,11111222 
WAVCIS,ioos:station:WAVCIS:CSI09:1,2017-02-10T22:00:00Z,29.1015,-89.9782,16.82,11111222 
WAVCIS,ioos:station:WAVCIS:CSI09:1,2017-02-10T23:00:00Z,29.1015,-89.9782,16.73,11111222 
WAVCIS,ioos:station:WAVCIS:CSI09:1,2017-02-11T00:00:00Z,29.1015,-89.9782,16.55,11111222 
WAVCIS,ioos:station:WAVCIS:CSI09:1,2017-02-11T01:00:00Z,29.1015,-89.9782,16.57,11111222 
WAVCIS,ioos:station:WAVCIS:CSI09:1,2017-02-11T02:00:00Z,29.1015,-89.9782,16.52,11111222 
WAVCIS,ioos:station:WAVCIS:CSI09:1,2017-02-11T03:00:00Z,29.1015,-89.9782,16.64,11111222 
WAVCIS,ioos:station:WAVCIS:CSI09:1,2017-02-11T04:00:00Z,29.1015,-89.9782,16.53,11111222 
WAVCIS,ioos:station:WAVCIS:CSI09:1,2017-02-11T05:00:00Z,29.1015,-89.9782,16.52,11111222 
WAVCIS,ioos:station:WAVCIS:CSI09:1,2017-02-11T06:00:00Z,29.1015,-89.9782,16.61,11111222 
WAVCIS,ioos:station:WAVCIS:CSI09:1,2017-02-11T07:00:00Z,29.1015,-89.9782,16.64,11111222 
WAVCIS,ioos:station:WAVCIS:CSI09:1,2017-02-11T08:00:00Z,29.1015,-89.9782,16.56,11111222 
WAVCIS,ioos:station:WAVCIS:CSI09:1,2017-02-11T09:00:00Z,29.1015,-89.9782,16.19,11111222 
WAVCIS,ioos:station:WAVCIS:CSI09:1,2017-02-11T10:00:00Z,29.1015,-89.9782,16.21,11111222 
WAVCIS,ioos:station:WAVCIS:CSI09:1,2017-02-11T11:00:00Z,29.1015,-89.9782,15.92,11111222 
WAVCIS,ioos:station:WAVCIS:CSI09:1,2017-02-11T12:00:00Z,29.1015,-89.9782,16.2,11111222 
WAVCIS,ioos:station:WAVCIS:CSI09:1,2017-02-11T13:00:00Z,29.1015,-89.9782,15.76,11111222 
WAVCIS,ioos:station:WAVCIS:CSI09:1,2017-02-11T14:00:00Z,29.1015,-89.9782,15.39,11111222 
WAVCIS,ioos:station:WAVCIS:CSI09:1,2017-02-11T15:00:00Z,29.1015,-89.9782,14.85,11111222 
WAVCIS,ioos:station:WAVCIS:CSI09:1,2017-02-11T16:00:00Z,29.1015,-89.9782,14.61,11111222 
WAVCIS,ioos:station:WAVCIS:CSI09:1,2017-02-11T17:00:00Z,29.1015,-89.9782,14.54,11111222 
WAVCIS,ioos:station:WAVCIS:CSI09:1,2017-02-11T18:00:00Z,29.1015,-89.9782,15.07,11111222 
WAVCIS,ioos:station:WAVCIS:CSI09:1,2017-02-11T19:00:00Z,29.1015,-89.9782,15.58,11111222 
WAVCIS,ioos:station:WAVCIS:CSI09:1,2017-02-11T20:00:00Z,29.1015,-89.9782,14.77,11111222 
WAVCIS,ioos:station:WAVCIS:CSI09:1,2017-02-11T21:00:00Z,29.1015,-89.9782,14.64,11111222 
WAVCIS,ioos:station:WAVCIS:CSI09:1,2017-02-11T22:00:00Z,29.1015,-89.9782,15.12,11111222 
WAVCIS,ioos:station:WAVCIS:CSI09:1,2017-02-11T23:00:00Z,29.1015,-89.9782,13.67,11111222 
WAVCIS,ioos:station:WAVCIS:CSI09:1,2017-02-12T00:00:00Z,29.1015,-89.9782,11.5,11111222 
WAVCIS,ioos:station:WAVCIS:CSI09:1,2017-02-12T01:00:00Z,29.1015,-89.9782,10.62,11111222 
WAVCIS,ioos:station:WAVCIS:CSI09:1,2017-02-12T02:00:00Z,29.1015,-89.9782,9.3,11111222 
WAVCIS,ioos:station:WAVCIS:CSI09:1,2017-02-12T03:00:00Z,29.1015,-89.9782,6.63,11111222 
WAVCIS,ioos:station:WAVCIS:CSI09:1,2017-02-12T04:00:00Z,29.1015,-89.9782,3.88,11111222 